TimeEST,TemperatureF,Dew PointF,Humidity,Sea Level PressureIn,VisibilityMPH,Wind Direction,Wind SpeedMPH,Gust SpeedMPH,PrecipitationIn,Events,Conditions,WindDirDegrees,DateUTC
12:35 AM,33.8,30.2,87,30.08,-9999.0,Calm,Calm,-,N/A,,Unknown,0,2013-01-01 05:35:00
12:55 AM,33.8,30.2,87,30.08,-9999.0,Calm,Calm,-,N/A,,Unknown,0,2013-01-01 05:55:00
1:15 AM,33.8,30.2,87,30.08,-9999.0,SW,3.5,-,N/A,,Unknown,220,2013-01-01 06:15:00
1:35 AM,33.8,30.2,87,30.08,-9999.0,SW,3.5,-,N/A,,Unknown,220,2013-01-01 06:35:00
1:55 AM,33.8,30.2,87,30.07,-9999.0,Calm,Calm,-,N/A,,Unknown,0,2013-01-01 06:55:00
2:16 AM,33.8,30.2,87,30.08,-9999.0,NNW,3.5,-,N/A,,Overcast,330,2013-01-01 07:16:00
2:35 AM,33.8,30.2,87,30.07,-9999.0,NNW,3.5,-,N/A,,Overcast,330,2013-01-01 07:35:00
2:55 AM,33.8,30.2,87,30.07,-9999.0,North,4.6,-,N/A,,Overcast,350,2013-01-01 07:55:00
3:15 AM,33.8,30.2,87,30.08,-9999.0,NNW,5.8,-,N/A,,Overcast,340,2013-01-01 08:15:00
3:35 AM,33.8,30.2,87,30.08,-9999.0,NNW,4.6,-,N/A,,Overcast,340,2013-01-01 08:35:00
3:55 AM,33.8,30.2,87,30.09,-9999.0,NNW,3.5,-,N/A,,Overcast,340,2013-01-01 08:55:00
4:15 AM,33.8,30.2,87,30.09,-9999.0,NNW,5.8,-,N/A,,Overcast,340,2013-01-01 09:15:00
4:35 AM,33.8,30.2,87,30.09,-9999.0,NNW,4.6,-,N/A,,Overcast,340,2013-01-01 09:35:00
5:15 AM,33.8,30.2,87,30.09,-9999.0,North,3.5,-,N/A,,Overcast,360,2013-01-01 10:15:00
5:35 AM,32.0,30.2,93,30.09,-9999.0,NNW,3.5,-,N/A,,Overcast,340,2013-01-01 10:35:00
6:15 AM,32.0,30.2,93,30.10,-9999.0,North,4.6,-,N/A,,Overcast,350,2013-01-01 11:15:00
6:35 AM,32.0,30.2,93,30.10,-9999.0,North,3.5,-,N/A,,Overcast,350,2013-01-01 11:35:00
7:15 AM,32.0,30.2,93,30.10,-9999.0,North,5.8,-,N/A,,Overcast,360,2013-01-01 12:15:00
7:35 AM,32.0,30.2,93,30.12,-9999.0,North,4.6,-,N/A,,Overcast,350,2013-01-01 12:35:00
8:15 AM,32.0,30.2,93,30.11,-9999.0,NNE,6.9,-,N/A,,Overcast,20,2013-01-01 13:15:00
8:35 AM,32.0,30.2,93,30.10,-9999.0,NNE,4.6,-,N/A,,Overcast,30,2013-01-01 13:35:00
8:55 AM,32.0,30.2,93,30.10,-9999.0,NNE,6.9,-,N/A,,Overcast,20,2013-01-01 13:55:00
9:16 AM,32.0,30.2,93,30.10,-9999.0,NNE,6.9,-,N/A,,Overcast,30,2013-01-01 14:16:00
9:35 AM,33.8,28.4,81,30.11,-9999.0,North,4.6,-,N/A,,Overcast,10,2013-01-01 14:35:00
10:15 AM,33.8,30.2,87,30.14,-9999.0,NNW,5.8,-,N/A,,Overcast,340,2013-01-01 15:15:00
10:35 AM,33.8,28.4,81,30.15,-9999.0,NNW,5.8,-,N/A,,Overcast,340,2013-01-01 15:35:00
11:15 AM,33.8,28.4,81,30.13,-9999.0,NNW,9.2,-,N/A,,Overcast,340,2013-01-01 16:15:00
11:35 AM,32.0,28.4,87,30.13,-9999.0,NNW,11.5,17.3,N/A,,Overcast,340,2013-01-01 16:35:00
12:15 PM,30.2,28.4,93,30.11,-9999.0,NNW,9.2,-,N/A,,Overcast,330,2013-01-01 17:15:00
12:55 PM,30.2,26.6,86,30.12,-9999.0,NNW,10.4,-,N/A,,Overcast,340,2013-01-01 17:55:00
1:15 PM,30.2,26.6,86,30.14,-9999.0,NNW,9.2,-,N/A,,Overcast,340,2013-01-01 18:15:00
1:35 PM,30.2,26.6,86,30.13,-9999.0,NNW,5.8,-,N/A,,Overcast,340,2013-01-01 18:35:00
2:15 PM,30.2,26.6,86,30.13,-9999.0,NNW,9.2,-,N/A,,Overcast,330,2013-01-01 19:15:00
2:35 PM,30.2,26.6,86,30.13,-9999.0,NNW,10.4,-,N/A,,Overcast,330,2013-01-01 19:35:00
3:15 PM,28.4,24.8,86,30.11,-9999.0,NNW,6.9,-,N/A,,Overcast,340,2013-01-01 20:15:00
3:55 PM,28.4,24.8,86,30.12,-9999.0,North,10.4,-,N/A,,Overcast,350,2013-01-01 20:55:00
4:15 PM,28.4,24.8,86,30.11,-9999.0,North,6.9,-,N/A,,Overcast,350,2013-01-01 21:15:00
4:35 PM,28.4,24.8,86,30.11,-9999.0,NNW,9.2,-,N/A,,Overcast,330,2013-01-01 21:35:00
5:16 PM,28.4,24.8,86,30.13,-9999.0,NNW,9.2,-,N/A,,Mostly Cloudy,340,2013-01-01 22:16:00
5:35 PM,28.4,24.8,86,30.12,-9999.0,NNW,10.4,-,N/A,,Mostly Cloudy,340,2013-01-01 22:35:00
6:15 PM,28.4,24.8,86,30.13,-9999.0,NNW,6.9,-,N/A,,Unknown,340,2013-01-01 23:15:00
6:35 PM,28.4,24.8,86,30.14,-9999.0,NNW,6.9,-,N/A,,Mostly Cloudy,340,2013-01-01 23:35:00
6:55 PM,28.4,24.8,86,30.15,-9999.0,NNW,5.8,-,N/A,,Mostly Cloudy,330,2013-01-01 23:55:00
7:15 PM,28.4,24.8,86,30.17,-9999.0,NNW,10.4,-,N/A,,Mostly Cloudy,330,2013-01-02 00:15:00
7:35 PM,28.4,23.0,80,30.17,-9999.0,NNW,11.5,-,N/A,,Mostly Cloudy,340,2013-01-02 00:35:00
7:55 PM,28.4,23.0,80,30.17,-9999.0,NNW,9.2,-,N/A,,Mostly Cloudy,330,2013-01-02 00:55:00
8:15 PM,26.6,21.2,80,30.18,-9999.0,NNW,9.2,-,N/A,,Mostly Cloudy,330,2013-01-02 01:15:00
8:35 PM,26.6,21.2,80,30.17,-9999.0,NW,10.4,-,N/A,,Scattered Clouds,320,2013-01-02 01:35:00
8:55 PM,26.6,21.2,80,30.18,-9999.0,NNW,10.4,-,N/A,,Mostly Cloudy,330,2013-01-02 01:55:00
9:15 PM,26.6,21.2,80,30.19,-9999.0,NW,11.5,-,N/A,,Overcast,320,2013-01-02 02:15:00
9:35 PM,26.6,21.2,80,30.19,-9999.0,NNW,11.5,-,N/A,,Mostly Cloudy,330,2013-01-02 02:35:00
9:55 PM,24.8,19.4,80,30.19,-9999.0,NNW,9.2,-,N/A,,Mostly Cloudy,340,2013-01-02 02:55:00
10:15 PM,24.8,19.4,80,30.19,-9999.0,NNW,10.4,-,N/A,,Mostly Cloudy,340,2013-01-02 03:15:00
10:35 PM,24.8,19.4,80,30.19,-9999.0,NNW,8.1,-,N/A,,Partly Cloudy,330,2013-01-02 03:35:00
11:15 PM,24.8,19.4,80,30.21,-9999.0,NNW,10.4,-,N/A,,Mostly Cloudy,330,2013-01-02 04:15:00
11:35 PM,24.8,19.4,80,30.20,-9999.0,NNW,5.8,-,N/A,,Mostly Cloudy,330,2013-01-02 04:35:00
11:55 PM,23.0,17.6,80,30.22,-9999.0,NW,8.1,-,N/A,,Scattered Clouds,320,2013-01-02 04:55:00